EW9824 Weather Reports


time (UTC)temp
F
wind
direction
speed
knots
gust
knots
rain 1hr
in
rain 24hr
in
rain mn
in
humidity
%
barometer
mb
20260906194530 53 22 0.0 0.9 0.02 0.13 0.09 95 1020.2
20260906193033 53 22 0.0 0.9 0.02 0.13 0.08 95 1020.2
20260906190028 53 322 2.6 7.0 0.02 0.12 0.07 95 1020.1
20260906184605 53 308 1.7 4.3 0.01 0.11 0.07 96 1020.1
20260906183032 52 346 1.7 5.2 0.02 0.11 0.06 97 1020.0
20260906181530 52 338 2.6 6.1 0.01 0.10 0.06 98 1020.1
20260906180107 52 356 3.5 7.0 0.01 0.10 0.06 98 1020.1
20260906174530 52 347 3.5 7.8 0.02 0.10 0.05 98 1020.0
20260906173029 53 343 3.5 7.8 0.01 0.09 0.05 98 1019.9
20260906171530 53 318 2.6 8.7 0.01 0.09 0.05 98 1019.9
20260906170031 53 289 2.6 5.2 0.01 0.09 0.04 98 1019.8
20260906164531 53 300 2.6 6.1 0.00 0.08 0.04 98 1019.8
20260906163029 52 278 1.7 3.5 0.01 0.08 0.04 98 1019.8
20260906161528 52 259 1.7 3.5 0.01 0.08 0.04 98 1019.7
20260906154529 52 238 0.9 2.6 0.01 0.08 0.03 98 1019.7
20260906151529 52 135 0.0 0.0 0.00 0.07 0.03 98 1019.4
20260906150040 51 135 0.0 0.9 0.01 0.07 0.03 98 1019.3
20260906144531 51 135 0.0 0.0 0.01 0.07 0.03 98 1019.1
20260906143028 51 135 0.0 0.0 0.01 0.07 0.03 98 1019.0
20260906141530 51 135 0.0 0.0 0.01 0.07 0.02 98 1018.8
20260906140031 51 135 0.0 0.0 0.00 0.06 0.02 98 1018.6
20260906133029 51 157 0.0 1.7 0.00 0.06 0.02 98 1018.5
20260906131531 51 157 0.0 1.7 0.00 0.06 0.02 98 1018.5
20260906123103 51 206 0.0 0.0 0.00 0.06 0.02 98 1018.7
20260906121539 51 216 0.0 1.7 0.00 0.06 0.02 98 1018.7
20260906120031 51 158 0.0 2.6 0.00 0.06 0.02 98 1018.7
20260906114527 51 188 0.0 1.7 0.00 0.06 0.02 98 1018.8
20260906113107 51 116 0.0 0.9 0.00 0.06 0.02 98 1018.9
20260906111531 51 153 0.0 0.0 0.00 0.06 0.02 98 1018.9
20260906110033 51 157 0.0 1.7 0.01 0.06 0.02 98 1018.9
20260906104529 51 157 0.0 0.9 0.01 0.06 0.02 98 1019.1
20260906103029 51 173 0.0 0.0 0.01 0.06 0.02 98 1019.3
20260906101527 51 202 0.0 0.0 0.01 0.06 0.01 97 1019.4
20260906100028 52 173 0.9 2.6 0.00 0.05 0.01 97 1019.4
20260906093029 52 157 0.9 1.7 0.00 0.05 0.01 97 1019.5
20260906091532 51 138 1.7 3.5 0.00 0.05 0.01 97 1019.4
20260906090032 51 135 0.0 2.6 0.00 0.06 0.01 97 1019.5
20260906084530 51 174 0.0 1.7 0.00 0.06 0.01 97 1019.5
20260906080033 51 157 0.9 2.6 0.01 0.06 0.01 97 1019.3
20260906074528 51 135 0.0 2.6 0.01 0.07 0.01 97 1019.2
20260906071541 50 167 0.9 2.6 0.00 0.06 0.00 97 1019.4
20260906063027 50 152 0.9 3.5 0.00 0.07 0.06 96 1019.7
20260906061530 50 159 1.7 4.3 0.00 0.07 0.06 96 1019.7
20260906060106 50 174 0.9 3.5 0.00 0.07 0.06 96 1019.8
20260906054531 51 155 1.7 3.5 0.01 0.07 0.06 96 1019.8
20260906053103 51 139 2.6 4.3 0.01 0.07 0.06 96 1019.9
20260906051533 51 141 1.7 3.5 0.01 0.07 0.06 95 1020.0
20260906044533 51 157 0.9 2.6 0.00 0.06 0.05 95 1020.1
20260906043030 52 168 0.9 2.6 0.00 0.06 0.05 95 1020.2
20260906041531 52 175 0.9 3.5 0.00 0.06 0.05 94 1020.2
20260906034531 53 169 0.9 3.5 0.00 0.06 0.05 94 1020.0
20260906033030 54 150 1.7 4.3 0.00 0.06 0.05 94 1019.8
20260906031603 54 176 2.6 6.1 0.01 0.06 0.05 92 1019.7
20260906030030 54 165 1.7 3.5 0.01 0.06 0.05 90 1019.6
20260906024532 55 157 0.9 2.6 0.01 0.06 0.05 89 1019.6
20260906021532 57 165 0.9 1.7 0.00 0.05 0.04 86 1019.6
20260906020029 58 180 0.0 1.7 0.00 0.05 0.04 84 1019.7
20260906014529 59 181 0.0 1.7 0.01 0.05 0.04 81 1019.6
20260906013030 59 202 0.0 1.7 0.01 0.05 0.04 79 1019.6
20260906011528 60 225 1.7 3.5 0.01 0.05 0.04 80 1019.8
20260906003032 60 275 2.6 5.2 0.01 0.04 0.03 84 1020.1
20260906001530 60 260 2.6 5.2 0.01 0.04 0.03 87 1020.2
20260906000030 59 77 1.7 7.0 0.01 0.04 0.03 87 1020.1
20260905234529 59 94 3.5 9.6 0.01 0.04 0.02 85 1020.2
20260905233028 60 149 1.7 4.3 0.00 0.03 0.02 81 1020.4
20260905231607 61 180 0.9 3.5 0.00 0.03 0.02 75 1020.2
20260905230031 63 323 0.0 3.5 0.00 0.03 0.02 75 1020.2
20260905224530 61 248 1.7 7.0 0.00 0.03 0.02 79 1020.2
20260905223104 61 197 1.7 5.2 0.00 0.03 0.02 72 1020.2
20260905221531 64 211 2.6 5.2 0.00 0.03 0.02 66 1020.0
20260905220032 66 308 0.9 4.3 0.00 0.03 0.02 64 1019.9
20260905214530 65 344 2.6 6.1 0.00 0.03 0.02 65 1020.0
20260905213032 63 22 0.9 3.5 0.00 0.03 0.02 68 1020.1
20260905211528 64 196 0.9 3.5 0.00 0.03 0.02 70 1020.3
20260905210028 62 154 0.0 2.6 0.00 0.03 0.02 71 1020.4
20260905204531 61 172 0.0 0.9 0.00 0.03 0.02 72 1020.5
20260905203030 61 167 0.0 2.6 0.00 0.03 0.02 72 1020.5
20260905201603 61 267 0.0 2.6 0.00 0.03 0.02 74 1020.6
20260905200029 60 270 0.9 3.5 0.00 0.03 0.02 76 1020.7